[Iaude] MPEC X88: 2023 XT1 [a=1.44,e=0.26,i=29.6,H=24.5]

mpec at marsden.cfa.harvard.edu mpec at marsden.cfa.harvard.edu
Tue Dec 5 22:24:56 EST 2023


M.P.E.C. 2023-X88                              Issued 2023 December 6, 03:23 UT

     The Minor Planet Electronic Circulars contain information on unusual
         minor planets, routine data on comets and natural satellites,
         and occasional editorial announcements.  They are published
    on behalf of Division F of the International Astronomical Union by the
          Minor Planet Center, Smithsonian Astrophysical Observatory,
                          Cambridge, MA 02138, U.S.A.
			  
             Prepared using the Tamkin Foundation Computer Network

                              MPC at CFA.HARVARD.EDU
            URL https://www.minorplanetcenter.net/    ISSN 1523-6714

                                    2023 XT1                                    


Observations:
     K23X01T*1C2023 12 03.24432503 43 52.111+23 01 47.46         20.80GVEX088G96
     K23X01T 1C2023 12 03.24993903 43 52.100+23 00 11.77         20.36GVEX088G96
     K23X01T 1C2023 12 03.25556303 43 52.093+22 58 33.71         20.27GVEX088G96
     K23X01T 1C2023 12 03.26118303 43 52.111+22 56 56.83         20.41GVEX088G96
     K23X01T KC2023 12 03.33788703 43 52.122+22 34 42.20         20.47GVEX088I52
     K23X01T KC2023 12 03.33875303 43 52.122+22 34 27.01         20.06GVEX088I52
     K23X01T KC2023 12 03.33963403 43 52.140+22 34 11.75         20.45GVEX088I52
     K23X01T KC2023 12 03.34049803 43 52.115+22 33 56.34         20.28GVEX088I52
     K23X01T KC2023 12 04.13951803 44 22.488+18 40 10.09         20.16GVEX088I52
     K23X01T KC2023 12 04.14045003 44 22.488+18 39 53.86         20.27GVEX088I52
     K23X01T KC2023 12 04.14138603 44 22.520+18 39 37.01         20.15GVEX088I52
     K23X01T KC2023 12 04.14232203 44 22.488+18 39 20.66         20.42GVEX088I52
     K23X01T  C2023 12 04.27334703 44 26.836+18 00 56.94         20.46wXEX088F52
     K23X01T  C2023 12 04.28503503 44 26.898+17 57 30.78         20.41wXEX088F52
     K23X01T  C2023 12 04.29678003 44 26.937+17 54 03.49         20.51wXEX088F52
     K23X01T  C2023 12 04.30844403 44 26.966+17 50 37.73         20.40wXEX088F52
     K23X01T  C2023 12 04.42558003 44 26.796+17 16 00.73         20.22GVEX088F51
     K23X01T  C2023 12 04.42622503 44 26.791+17 15 49.05         20.35GVEX088F51
     K23X01T  C2023 12 04.42846403 44 26.799+17 15 09.16               VEX088F51
     K23X01T  C2023 12 04.42884703 44 26.795+17 15 02.32         20.23GVEX088F51
     K23X01T KC2023 12 05.97696 03 45 16.75 +09 35 12.8                VEX088204
     K23X01T KC2023 12 05.99009 03 45 16.89 +09 31 19.9          20.5 GVEX088204

Observer details:
204 Schiaparelli Observatory.  Observers L. Buzzi, G. Galli.  0.84-m f/3.5
    reflector + CCD.
F51 Pan-STARRS 1, Haleakala.  Observers J. Herman, T. Lowe, P. Minguez, A.
    Schultz, I. Smith.  Measurers K. Chambers, T. de Boer, J. Fairlamb, H.
    Gao, M. Huber, C.-C. Lin, E. Magnier, Y. Ramanjooloo, R. Wainscoat, R.
    Weryk.  1.8-m Ritchey-Chretien + CCD.
F52 Pan-STARRS 2, Haleakala.  Observers J. Herman, T. Lowe, P. Minguez, A.
    Schultz, I. Smith.  Measurers K. Chambers, T. de Boer, J. Fairlamb, H.
    Gao, M. Huber, C.-C. Lin, E. Magnier, Y. Ramanjooloo, R. Wainscoat, R.
    Weryk.  1.8-m Ritchey-Chretien + CCD.
G96 Mt. Lemmon Survey.  Observer H. Groeller.  Measurers E. C. Beshore, D.
    Fay, J. B. Fazekas, D. C. Fuls, A. R. Gibbs, A. D. Grauer, H. Groeller, J.
    K. Hogan, R. A. Kowalski, S. M. Larson, G. J. Leonard, D. Rankin, R. L.
    Seaman, F. C. Shelly, K. W. Wierzchos.  1.5-m reflector + 10K CCD.
I52 Steward Observatory, Mt. Lemmon Station.  Observers R. A. Kowalski, G. J.
    Leonard.  Measurers E. C. Beshore, D. Fay, J. B. Fazekas, D. C. Fuls, A.
    R. Gibbs, A. D. Grauer, H. Groeller, J. K. Hogan, R. A. Kowalski, S. M.
    Larson, G. J. Leonard, D. Rankin, R. L. Seaman, F. C. Shelly, K. W.
    Wierzchos.  1.0-m prime focus + CCD.

Orbital elements:
2023 XT1                                                 Earth MOID = 0.1020 AU
Epoch 2023 Sept. 13.0 TT = JDT 2460200.5                MPC                     
M 296.04925              (2000.0)            P               Q                  
n   0.57119753     Peri.  209.89672     -0.10892301     -0.87956288             
a   1.4386169      Node   249.88048     +0.98148376     -0.02130976             
e   0.2627499      Incl.   29.55416     +0.15756077     -0.47530521             
P   1.73           H   24.51          G   0.15           U   8                  
Residuals in seconds of arc
231203 G96  0.0   1.0-    231204 I52  0.0   0.1-    231204 F51  0.0   0.2+
231203 G96  0.1-  0.5+    231204 I52  0.1-  0.0     231204 F51  0.1-  0.0
231203 G96  0.1-  0.1-    231204 I52  0.2+  0.3-    231204 F51  0.1+  0.0
231203 G96  0.2+  0.4+    231204 I52  0.4-  0.2-    231204 F51  0.0   0.0
231203 I52  0.0   0.1+    231204 F52  0.0   0.1+    231205 204  0.0   0.0
231203 I52  0.0   0.0     231204 F52  0.1+  0.1+    231205 204  0.1+  0.0
231203 I52  0.2+  0.1+    231204 F52  0.0   0.0
231203 I52  0.2-  0.2-    231204 F52  0.1+  0.3+

Ephemeris:
2023 XT1                 a,e,i = 1.44, 0.26, 30                  q = 1.0606
Date    TT    R. A. (2000) Decl.     Delta      r    Elong.  Phase     V
2023 11 06    03 28 54.6 +76 43 40   0.2979  1.1643   118.7    48.3    24.0
...
2023 11 21    03 38 24.2 +62 51 45   0.1728  1.1204   136.9    37.1    22.4
...
2023 11 29    03 41 49.0 +41 28 01   0.1221  1.1011   158.5    19.1    21.1
...
2023 12 05    03 44 46.3 +14 25 57   0.1068  1.0887   164.1    14.3    20.6
2023 12 06    03 45 18.7 +09 29 28   0.1071  1.0869   160.3    17.8    20.8
2023 12 07    03 45 52.1 +04 37 17   0.1082  1.0851   156.0    21.6    20.9
...
2023 12 13    03 49 34.5 -19 57 00   0.1298  1.0756   131.9    43.0    21.9
...
2023 12 21    03 55 37.0 -38 17 44   0.1819  1.0664   112.4    58.6    23.1
...
2024 01 05    04 09 51.0 -51 25 20   0.2955  1.0607    97.0    66.9    24.4

A. U. Tomatic                (C) Copyright 2023 MPC           M.P.E.C. 2023-X88





More information about the Iaude mailing list